Copper Mountain, CO

9:34 PM MDT on April 26, 2018 (GMT -0600)
Copper Mountain

Weather History for KCCU - April, 2013

Change the Weather History Date:

Thursday, April 4, 2013

  Actual Average Record
Temperature  
Mean Temperature 33 °F -  
Max Temperature 42 °F - 44 °F (2012)
Min Temperature 24 °F - 0 °F (2003)
Degree Days  
Heating Degree Days 32    
Month to date heating degree days  
Cooling Degree Days 0    
Month to date cooling degree days  
Moisture  
Dew Point 16 °F    
Average Humidity 52    
Maximum Humidity 80    
Minimum Humidity 30    
Precipitation  
Precipitation 0.01 in - 0.04 in (2003)
Snow  
Snow 0.00 in - - ()
Snow Depth -    
Sea Level Pressure  
Sea Level Pressure 30.34 in    
Wind  
Wind Speed 17 mph (WSW)    
Max Wind Speed 25 mph    
Max Gust Speed 29 mph    
Visibility 10 miles    
Events Snow    
T = Trace of Precipitation, MM = Missing Value Source: NWS Daily Summary

Daily Weather History Graph

Daily Weather History Graph

Search for Another Location

Airport or City:

Astronomy

Apr. 04, 2013 Rise Set
Actual Time 6:43 AM MDT 7:31 PM MDT
Civil Twilight 6:16 AM MDT 7:59 PM MDT
Nautical Twilight 5:44 AM MDT 8:31 PM MDT
Astronomical Twilight 5:11 AM MDT 9:04 PM MDT
Moon 3:10 AM MDT (4/4) 1:54 PM MDT (4/4)
Length of Visible Light 13h 42m
Length of Day
12h 48m
Waning Crescent, 33% of the Moon is Illuminated
Apr 4
Waning Crescent
Apr 10
New
Apr 18
First Quarter
Apr 25
Full
May 2
Last Quarter

Hourly Weather History & Observations

Time (MDT) Temp. Windchill Dew Point Humidity Pressure Visibility Wind Dir Wind Speed Gust Speed Precip Events Conditions
12:12 AM 28.4 °F 15.1 °F 12.2 °F 51% 30.33 in 10.0 mi West 20.7 mph - N/A   Clear
12:32 AM 28.4 °F 15.4 °F 12.2 °F 51% 30.33 in 10.0 mi West 19.6 mph - N/A   Clear
12:52 AM 28.4 °F 15.4 °F 12.2 °F 51% 30.33 in 10.0 mi West 19.6 mph - N/A   Scattered Clouds
1:12 AM 28.4 °F 15.8 °F 12.2 °F 51% 30.33 in 10.0 mi West 18.4 mph - N/A   Mostly Cloudy
1:32 AM 28.4 °F 15.4 °F 12.2 °F 51% 30.33 in 10.0 mi West 19.6 mph - N/A   Mostly Cloudy
1:52 AM 28.4 °F 15.1 °F 14.0 °F 55% 30.33 in 10.0 mi West 20.7 mph - N/A   Overcast
2:12 AM 26.6 °F - 14.0 °F 59% 30.33 in 10.0 mi North - - N/A   Overcast
2:32 AM 26.6 °F - 14.0 °F 59% 30.33 in 10.0 mi North - - N/A   Scattered Clouds
2:52 AM 26.6 °F - 17.6 °F 69% 30.33 in 10.0 mi North - - N/A   Mostly Cloudy
3:12 AM 26.6 °F - 17.6 °F 69% 30.33 in 10.0 mi North - - N/A   Overcast
3:32 AM 26.6 °F - 17.6 °F 69% 30.33 in 10.0 mi North - - N/A   Overcast
3:52 AM 26.6 °F - 17.6 °F 69% 30.33 in 7.0 mi North - - N/A Snow Light Snow
4:12 AM 26.6 °F - 19.4 °F 74% 30.33 in 5.0 mi North - - N/A Snow Light Snow
4:32 AM 28.4 °F 15.8 °F 19.4 °F 69% 30.33 in 10.0 mi West 18.4 mph - N/A   Overcast
4:52 AM 26.6 °F 12.7 °F 19.4 °F 74% 30.33 in 10.0 mi West 20.7 mph - N/A   Overcast
5:12 AM 28.4 °F - 19.4 °F 69% 30.33 in 10.0 mi North - - N/A   Overcast
5:32 AM 26.6 °F - 19.4 °F 74% 30.33 in 10.0 mi North - - N/A   Mostly Cloudy
5:52 AM 26.6 °F - 19.4 °F 74% 30.34 in 10.0 mi North - - N/A   Mostly Cloudy
6:12 AM 26.6 °F 13.1 °F 19.4 °F 74% 30.33 in 10.0 mi West 19.6 mph - N/A   Mostly Cloudy
6:32 AM 26.6 °F 13.1 °F 19.4 °F 74% 30.33 in 10.0 mi West 19.6 mph - N/A   Scattered Clouds
6:52 AM 26.6 °F 12.7 °F 21.2 °F 80% 30.33 in 10.0 mi West 20.7 mph - N/A   Clear
7:12 AM 26.6 °F 13.8 °F 21.2 °F 80% 30.34 in 10.0 mi West 17.3 mph - N/A   Clear
7:32 AM 26.6 °F 14.7 °F 19.4 °F 74% 30.35 in 10.0 mi West 15.0 mph - N/A   Clear
7:52 AM 24.8 °F 13.4 °F 19.4 °F 80% 30.36 in 10.0 mi West 12.7 mph - N/A   Clear
8:12 AM 26.6 °F 16.2 °F 19.4 °F 74% 30.36 in 10.0 mi West 11.5 mph - N/A   Clear
8:32 AM 28.4 °F 16.6 °F 19.4 °F 69% 30.35 in 10.0 mi West 16.1 mph - N/A   Clear
8:52 AM 30.2 °F 19.3 °F 19.4 °F 64% 30.36 in 10.0 mi West 15.0 mph 21.9 mph N/A   Clear
9:12 AM 30.2 °F 19.3 °F 19.4 °F 64% 30.36 in 10.0 mi West 15.0 mph - N/A   Clear
9:32 AM 30.2 °F 18.9 °F 19.4 °F 64% 30.36 in 10.0 mi West 16.1 mph 24.2 mph N/A   Mostly Cloudy
9:52 AM 32.0 °F 24.2 °F 21.2 °F 64% 30.36 in 10.0 mi West 9.2 mph - N/A   Mostly Cloudy
10:32 AM 32.0 °F 20.5 °F 21.2 °F 64% 30.37 in 10.0 mi West 18.4 mph 27.6 mph N/A   Mostly Cloudy
10:52 AM 33.8 °F 21.6 °F 19.4 °F 56% 30.36 in 10.0 mi West 23.0 mph 27.6 mph N/A   Scattered Clouds
11:12 AM 33.8 °F 22.8 °F 17.6 °F 52% 30.38 in 10.0 mi WNW 18.4 mph 27.6 mph N/A   Scattered Clouds
11:32 AM 35.6 °F 23.4 °F 17.6 °F 48% 30.37 in 10.0 mi West 25.3 mph 28.8 mph N/A   Scattered Clouds
11:52 AM 35.6 °F 24.5 °F 17.6 °F 48% 30.38 in 10.0 mi WNW 20.7 mph 24.2 mph 0.01 in   Scattered Clouds
12:12 PM 35.6 °F 24.5 °F 17.6 °F 48% 30.38 in 10.0 mi WNW 20.7 mph 28.8 mph N/A   Scattered Clouds
12:32 PM 37.4 °F 28.5 °F 17.6 °F 45% 30.37 in 10.0 mi West 15.0 mph 19.6 mph N/A   Mostly Cloudy
12:52 PM 37.4 °F 29.3 °F 17.6 °F 45% 30.36 in 10.0 mi West 12.7 mph 24.2 mph N/A   Mostly Cloudy
1:12 PM 37.4 °F 27.8 °F 17.6 °F 45% 30.36 in 10.0 mi WNW 17.3 mph 21.9 mph N/A   Scattered Clouds
1:32 PM 37.4 °F 26.9 °F 17.6 °F 45% 30.36 in 10.0 mi West 20.7 mph - N/A   Scattered Clouds
1:52 PM 37.4 °F 28.9 °F 19.4 °F 48% 30.36 in 10.0 mi West 13.8 mph 25.3 mph N/A   Scattered Clouds
2:12 PM 39.2 °F 32.0 °F 17.6 °F 42% 30.36 in 10.0 mi West 11.5 mph 20.7 mph N/A   Mostly Cloudy
2:32 PM 41.0 °F 34.7 °F 19.4 °F 42% 30.35 in 10.0 mi West 10.4 mph 19.6 mph N/A   Scattered Clouds
2:52 PM 41.0 °F 34.7 °F 17.6 °F 39% 30.34 in 10.0 mi West 10.4 mph 18.4 mph N/A   Scattered Clouds
3:12 PM 42.8 °F 35.8 °F 17.6 °F 36% 30.34 in 10.0 mi West 13.8 mph 18.4 mph N/A   Clear
3:32 PM 41.0 °F 34.7 °F 17.6 °F 39% 30.34 in 10.0 mi WSW 10.4 mph 26.5 mph N/A   Scattered Clouds
3:52 PM 41.0 °F 33.1 °F 12.2 °F 31% 30.33 in 10.0 mi West 15.0 mph - N/A   Mostly Cloudy
4:12 PM 41.0 °F 35.8 °F 15.8 °F 36% 30.33 in 10.0 mi SSW 8.1 mph - N/A   Scattered Clouds
4:32 PM 41.0 °F 33.9 °F 15.8 °F 36% 30.33 in 10.0 mi WSW 12.7 mph 20.7 mph N/A   Scattered Clouds
4:52 PM 41.0 °F 33.1 °F 14.0 °F 33% 30.33 in 10.0 mi WSW 15.0 mph 23.0 mph N/A   Clear
5:12 PM 41.0 °F 32.5 °F 12.2 °F 31% 30.33 in 10.0 mi West 17.3 mph 27.6 mph N/A   Clear
5:32 PM 41.0 °F 32.2 °F 14.0 °F 33% 30.34 in 10.0 mi West 18.4 mph 23.0 mph N/A   Clear
5:52 PM 41.0 °F 33.1 °F 14.0 °F 33% 30.34 in 10.0 mi West 15.0 mph 25.3 mph N/A   Clear
6:12 PM 37.4 °F 27.5 °F 15.8 °F 41% 30.33 in 10.0 mi West 18.4 mph 24.2 mph N/A   Clear
6:32 PM 37.4 °F 29.3 °F 17.6 °F 45% 30.33 in 10.0 mi WSW 12.7 mph 19.6 mph N/A   Clear
6:52 PM 35.6 °F 28.0 °F 15.8 °F 44% 30.33 in 10.0 mi WSW 10.4 mph 16.1 mph N/A   Clear
7:12 PM 37.4 °F 31.4 °F 15.8 °F 41% 30.33 in 10.0 mi SW 8.1 mph - N/A   Clear
7:32 PM 35.6 °F 28.6 °F 15.8 °F 44% 30.33 in 10.0 mi SW 9.2 mph - N/A   Clear
7:52 PM 35.6 °F 28.6 °F 15.8 °F 44% 30.33 in 10.0 mi SW 9.2 mph - N/A   Clear
8:12 PM 33.8 °F 26.4 °F 14.0 °F 44% 30.33 in 10.0 mi SW 9.2 mph - N/A   Clear
8:32 PM 35.6 °F 27.5 °F 15.8 °F 44% 30.33 in 10.0 mi SW 11.5 mph - N/A   Clear
8:52 PM 33.8 °F 24.3 °F 15.8 °F 48% 30.33 in 10.0 mi WSW 13.8 mph - N/A   Clear
9:12 PM 33.8 °F 24.8 °F 15.8 °F 48% 30.34 in 10.0 mi SW 12.7 mph 17.3 mph N/A   Clear
9:32 PM 33.8 °F 23.9 °F 17.6 °F 52% 30.34 in 10.0 mi SW 15.0 mph 20.7 mph N/A   Clear
9:52 PM 35.6 °F 28.0 °F 15.8 °F 44% 30.34 in 10.0 mi SW 10.4 mph - N/A   Clear
10:12 PM 33.8 °F 25.8 °F 14.0 °F 44% 30.34 in 10.0 mi SSW 10.4 mph 16.1 mph N/A   Clear
10:32 PM 33.8 °F 25.3 °F 14.0 °F 44% 30.33 in 10.0 mi South 11.5 mph 20.7 mph N/A   Clear
10:52 PM 33.8 °F 25.8 °F 12.2 °F 41% 30.33 in 10.0 mi SSW 10.4 mph 17.3 mph N/A   Scattered Clouds
11:12 PM 33.8 °F 25.8 °F 10.4 °F 38% 30.33 in 10.0 mi SSW 10.4 mph 16.1 mph N/A   Scattered Clouds
11:32 PM 33.8 °F 25.8 °F 6.8 °F 32% 30.33 in 10.0 mi SSW 10.4 mph 16.1 mph N/A   Clear
11:52 PM 33.8 °F 24.8 °F 5.0 °F 30% 30.31 in 10.0 mi South 12.7 mph 16.1 mph N/A   Scattered Clouds
11:57 PM 33.8 °F 23.9 °F 5.0 °F 30% 30.31 in 10.0 mi South 15.0 mph - N/A   Scattered Clouds